Погода в Акстафе

Азербайджан     41˚07′03″N   45˚27′07″E
темп.,
°C
ветер,
м/с
пор.,
м/с
влажн.,
%
обл.,
%
осадки,
мм/ч
давл.,
гПа
погр.,
м
17 января, вс
вс1701:00+2˚юз1286100 0.0 101422
04:00+2˚зюз128796 0.0 101322
07:00+1˚зюз118732 0.0 101122
10:00+3˚зсз117737 0.0 101062
13:00+6˚с22682 0.0 1008377
16:00+8˚с21613 0.0 1005294
19:00+6˚з1166100 0.0 100722
22:00+6˚зсз1263100 0.0 100624
18 января, пн
пн1801:00+6˚зюз2252100 0.0 100625
04:00+5˚зюз1252100 0.0 100424
07:00+5˚з235798 0.0 100530
10:00+4˚зсз487264 0.0 1007411
13:00+7˚сз455513 0.0 1006527
16:00+7˚сз455357 0.0 1006519
19:00+4˚сз2463100 0.0 1009160
22:00+2˚сз136667 0.0 1011102
19 января, вт
вт1901:00+2˚з1166100 0.0 101234
04:00+1˚ссз0486100 1.5 1013380
07:00+1˚юз338593 0.6 101688
10:00+1˚с357397 0.8 1018509
13:00+2˚сз3553100 0.1 1018845
16:00+1˚зюз3356100 0.4 1015659
19:00−1˚юз3482100 1.2 1017179
22:00−2˚зюз2393100 2.8 1018242
20 января, ср
ср2001:00−2˚юз3485100 1.3 1019276
04:00−2˚ююз3475100 1.4 101987
07:00−3˚зюз3374100 0.0 102065
10:00−2˚зсз247091 0.0 1021284
13:00сз2363100 0.0 1019576
16:00+1˚сз2355100 0.0 1019732
19:00−1˚юз2466100 0.0 102272
22:00−3˚зюз4556100 0.0 1024109
21 января, чт
чт2101:00−4˚юз565768 0.0 102682
04:00−5˚юз445535 0.0 102760
07:00−5˚юз45520 0.0 103065
10:00−3˚юз33510 0.0 103299
13:00+1˚ссз223824 0.0 1031751
16:00+1˚зсз123812 0.0 1032842
19:00−3˚юз33580 0.0 103628
22:00−4˚ююз44570 0.0 103858